| time (UTC) | temp C | wind direction | speed KPH | gust KPH | rain 1hr cm | rain 24hr cm | rain mn cm | humidity % | barometer mb |
| 20260906232634 | 16 | 340 | 14.5 | 17.7 | 0.00 | 2.31 | 2.31 | 77 | 1016.6 |
| 20260906232135 | 16 | 5 | 8.0 | 14.5 | 0.00 | 2.31 | 2.31 | 77 | 1016.7 |
| 20260906231629 | 16 | 18 | 8.0 | 14.5 | 0.00 | 2.31 | 2.31 | 77 | 1016.7 |
| 20260906231125 | 16 | 7 | 8.0 | 14.5 | 0.00 | 2.31 | 2.31 | 76 | 1016.9 |
| 20260906230624 | 17 | 12 | 6.4 | 12.9 | 0.00 | 2.31 | 2.31 | 75 | 1016.9 |
| 20260906230119 | 17 | 23 | 8.0 | 14.5 | 0.00 | 2.31 | 2.31 | 75 | 1016.9 |
| 20260906225618 | 17 | 357 | 8.0 | 12.9 | 0.00 | 2.31 | 2.31 | 74 | 1017.1 |
| 20260906225114 | 16 | 1 | 6.4 | 14.5 | 0.00 | 2.31 | 2.31 | 75 | 1016.8 |
| 20260906224608 | 16 | 6 | 9.7 | 14.5 | 0.00 | 2.31 | 2.31 | 78 | 1017.1 |
| 20260906224105 | 16 | 2 | 6.4 | 12.9 | 0.00 | 2.31 | 2.31 | 79 | 1017.3 |
| 20260906223601 | 16 | 9 | 8.0 | 12.9 | 0.00 | 2.31 | 2.31 | 79 | 1017.3 |
| 20260906223100 | 15 | 353 | 4.8 | 12.9 | 0.00 | 2.31 | 2.31 | 80 | 1017.4 |
| 20260906222559 | 15 | 359 | 11.3 | 12.9 | 0.00 | 2.31 | 2.31 | 80 | 1017.4 |
| 20260906222057 | 15 | 358 | 8.0 | 12.9 | 0.00 | 2.31 | 2.31 | 79 | 1017.4 |
| 20260906221555 | 15 | 356 | 4.8 | 11.3 | 0.00 | 2.31 | 2.31 | 80 | 1017.5 |
| 20260906221051 | 15 | 4 | 9.7 | 14.5 | 0.00 | 2.31 | 2.31 | 80 | 1017.5 |
| 20260906220546 | 15 | 7 | 9.7 | 16.1 | 0.00 | 2.31 | 2.31 | 80 | 1017.4 |
| 20260906220042 | 15 | 358 | 4.8 | 12.9 | 0.00 | 2.31 | 2.31 | 81 | 1017.6 |
| 20260906215541 | 15 | 350 | 9.7 | 12.9 | 0.00 | 2.31 | 2.31 | 80 | 1017.5 |
| 20260906215039 | 15 | 353 | 6.4 | 11.3 | 0.00 | 2.31 | 2.31 | 81 | 1017.5 |
| 20260906214537 | 15 | 345 | 9.7 | 16.1 | 0.00 | 2.31 | 2.31 | 80 | 1017.5 |
| 20260906214033 | 15 | 349 | 11.3 | 16.1 | 0.00 | 2.31 | 2.31 | 79 | 1017.4 |
| 20260906213532 | 15 | 0 | 4.8 | 12.9 | 0.00 | 2.31 | 2.31 | 80 | 1017.5 |
| 20260906213027 | 15 | 350 | 9.7 | 14.5 | 0.00 | 2.31 | 2.31 | 79 | 1017.3 |
| 20260906212520 | 15 | 5 | 8.0 | 12.9 | 0.00 | 2.31 | 2.31 | 80 | 1017.2 |
| 20260906212016 | 15 | 353 | 9.7 | 12.9 | 0.00 | 2.31 | 2.31 | 80 | 1017.2 |
| 20260906211509 | 15 | 335 | 8.0 | 14.5 | 0.00 | 2.31 | 2.31 | 81 | 1017.2 |
| 20260906211005 | 15 | 351 | 6.4 | 14.5 | 0.00 | 2.31 | 2.31 | 80 | 1017.3 |
| 20260906210500 | 15 | 351 | 9.7 | 16.1 | 0.00 | 2.31 | 2.31 | 79 | 1017.1 |
| 20260906205959 | 15 | 342 | 9.7 | 16.1 | 0.00 | 2.31 | 2.31 | 78 | 1017.4 |
| 20260906205456 | 15 | 12 | 12.9 | 16.1 | 0.00 | 2.31 | 2.31 | 79 | 1017.1 |
| 20260906204952 | 15 | 349 | 11.3 | 16.1 | 0.00 | 2.31 | 2.31 | 79 | 1017.2 |
| 20260906204451 | 15 | 6 | 4.8 | 16.1 | 0.00 | 2.31 | 2.31 | 81 | 1017.2 |
| 20260906203950 | 15 | 350 | 11.3 | 17.7 | 0.00 | 2.31 | 2.31 | 81 | 1017.4 |
| 20260906203445 | 14 | 355 | 9.7 | 20.9 | 0.00 | 2.31 | 2.31 | 82 | 1017.3 |
| 20260906202943 | 14 | 24 | 16.1 | 22.5 | 0.00 | 2.31 | 2.31 | 81 | 1017.3 |
| 20260906202442 | 14 | 355 | 14.5 | 17.7 | 0.00 | 2.31 | 2.31 | 82 | 1017.3 |
| 20260906201937 | 14 | 7 | 12.9 | 25.7 | 0.00 | 2.31 | 2.31 | 81 | 1017.4 |
| 20260906201432 | 14 | 347 | 16.1 | 24.1 | 0.00 | 2.31 | 2.31 | 79 | 1017.2 |
| 20260906200927 | 14 | 358 | 12.9 | 17.7 | 0.00 | 2.31 | 2.31 | 79 | 1017.5 |
| 20260906200423 | 14 | 335 | 14.5 | 30.6 | 0.00 | 2.31 | 2.31 | 79 | 1017.4 |
| 20260906195923 | 15 | 0 | 14.5 | 24.1 | 0.00 | 2.31 | 2.31 | 79 | 1017.3 |
| 20260906195419 | 15 | 9 | 12.9 | 24.1 | 0.00 | 2.31 | 2.31 | 78 | 1017.2 |
| 20260906194915 | 15 | 331 | 9.7 | 22.5 | 0.00 | 2.31 | 2.31 | 78 | 1017.3 |
| 20260906194410 | 15 | 26 | 6.4 | 22.5 | 0.00 | 2.31 | 2.31 | 78 | 1017.2 |
| 20260906193907 | 15 | 8 | 14.5 | 24.1 | 0.00 | 2.31 | 2.31 | 77 | 1017.5 |
| 20260906193401 | 15 | 353 | 14.5 | 20.9 | 0.00 | 2.31 | 2.31 | 76 | 1017.4 |
| 20260906192857 | 15 | 354 | 16.1 | 27.4 | 0.00 | 2.31 | 2.31 | 76 | 1017.4 |
| 20260906192356 | 15 | 359 | 11.3 | 30.6 | 0.00 | 2.31 | 2.31 | 76 | 1017.4 |
| 20260906191855 | 15 | 353 | 16.1 | 24.1 | 0.00 | 2.31 | 2.31 | 74 | 1017.4 |
| 20260906191351 | 15 | 343 | 12.9 | 27.4 | 0.00 | 2.31 | 2.31 | 76 | 1017.4 |
| 20260906190850 | 15 | 351 | 20.9 | 25.7 | 0.00 | 2.31 | 2.31 | 75 | 1017.5 |
| 20260906190349 | 15 | 351 | 16.1 | 29.0 | 0.00 | 2.31 | 2.31 | 74 | 1017.4 |
| 20260906185844 | 15 | 352 | 16.1 | 25.7 | 0.00 | 2.31 | 2.31 | 74 | 1017.6 |
| 20260906185343 | 15 | 329 | 19.3 | 33.8 | 0.00 | 2.31 | 2.31 | 74 | 1017.3 |
| 20260906184843 | 15 | 355 | 24.1 | 33.8 | 0.00 | 2.31 | 2.31 | 72 | 1017.5 |
| 20260906184338 | 15 | 0 | 25.7 | 38.6 | 0.00 | 2.31 | 2.31 | 69 | 1017.1 |
| 20260906183833 | 15 | 345 | 16.1 | 35.4 | 0.00 | 2.31 | 2.31 | 70 | 1017.2 |
| 20260906183330 | 15 | 344 | 20.9 | 33.8 | 0.00 | 2.31 | 2.31 | 72 | 1017.1 |
| 20260906182829 | 15 | 13 | 24.1 | 30.6 | 0.00 | 2.31 | 2.31 | 74 | 1016.9 |
| 20260906182325 | 14 | 3 | 24.1 | 37.0 | 0.00 | 2.31 | 2.31 | 75 | 1017.3 |
| 20260906181820 | 13 | 350 | 16.1 | 41.8 | 0.00 | 2.31 | 2.31 | 78 | 1017.2 |
| 20260906181317 | 13 | 7 | 24.1 | 33.8 | 0.00 | 2.31 | 2.31 | 78 | 1017.4 |
| 20260906180812 | 13 | 4 | 22.5 | 33.8 | 0.00 | 2.31 | 2.31 | 79 | 1017.4 |
| 20260906180312 | 13 | 7 | 16.1 | 27.4 | 0.00 | 2.31 | 2.31 | 79 | 1017.7 |
| 20260906175809 | 13 | 357 | 25.7 | 38.6 | 0.00 | 2.31 | 2.31 | 80 | 1018.2 |
| 20260906175306 | 13 | 15 | 11.3 | 25.7 | 0.00 | 2.31 | 2.31 | 83 | 1018.3 |
| 20260906174804 | 13 | 357 | 19.3 | 29.0 | 0.00 | 2.31 | 2.31 | 83 | 1018.3 |
| 20260906174303 | 13 | 7 | 20.9 | 25.7 | 0.00 | 2.31 | 2.31 | 85 | 1018.2 |
| 20260906173759 | 12 | 355 | 25.7 | 35.4 | 0.00 | 2.31 | 2.31 | 87 | 1018.4 |
| 20260906173254 | 13 | 6 | 22.5 | 29.0 | 0.00 | 2.31 | 2.31 | 88 | 1018.6 |
| 20260906172754 | 13 | 0 | 16.1 | 25.7 | 0.00 | 2.31 | 2.31 | 89 | 1018.5 |
| 20260906172250 | 12 | 3 | 16.1 | 22.5 | 0.00 | 2.31 | 2.31 | 91 | 1018.5 |
| 20260906171750 | 12 | 9 | 16.1 | 35.4 | 0.00 | 2.31 | 2.31 | 91 | 1018.6 |
| 20260906171245 | 12 | 8 | 16.1 | 30.6 | 0.13 | 2.31 | 2.31 | 92 | 1018.2 |
| 20260906170741 | 12 | 0 | 19.3 | 29.0 | 0.13 | 2.31 | 2.31 | 91 | 1018.3 |
| 20260906170236 | 12 | 4 | 12.9 | 22.5 | 0.18 | 2.29 | 2.29 | 92 | 1019.3 |
| 20260906165732 | 12 | 354 | 12.9 | 20.9 | 0.18 | 2.29 | 2.29 | 91 | 1019.6 |
| 20260906165226 | 12 | 5 | 8.0 | 16.1 | 0.00 | 2.26 | 2.26 | 90 | 1019.8 |
| 20260906164720 | 12 | 325 | 9.7 | 14.5 | 0.00 | 2.26 | 2.26 | 89 | 1019.6 |
| 20260906164215 | 12 | 277 | 12.9 | 22.5 | 0.00 | 2.26 | 2.26 | 88 | 1019.8 |
| 20260906163711 | 12 | 2 | 16.1 | 20.9 | 0.00 | 2.26 | 2.26 | 89 | 1019.6 |
| 20260906163208 | 12 | 2 | 8.0 | 22.5 | 0.00 | 2.26 | 2.26 | 90 | 1019.3 |
| 20260906162704 | 12 | 7 | 16.1 | 29.0 | 0.00 | 2.26 | 2.26 | 89 | 1019.4 |
| 20260906162204 | 12 | 4 | 12.9 | 27.4 | 0.00 | 2.26 | 2.26 | 89 | 1019.2 |
| 20260906161658 | 12 | 336 | 11.3 | 24.1 | 0.00 | 2.26 | 2.26 | 91 | 1019.2 |
| 20260906161157 | 12 | 5 | 17.7 | 27.4 | 0.00 | 2.26 | 2.26 | 91 | 1018.9 |
| 20260906160657 | 12 | 12 | 11.3 | 24.1 | 0.00 | 2.26 | 2.26 | 92 | 1018.9 |
| 20260906160156 | 12 | 21 | 16.1 | 29.0 | 0.00 | 2.26 | 2.26 | 92 | 1019.3 |
| 20260906155653 | 11 | 10 | 11.3 | 22.5 | 0.00 | 2.26 | 2.26 | 91 | 1019.1 |
| 20260906155149 | 11 | 9 | 14.5 | 29.0 | 0.00 | 2.26 | 2.26 | 91 | 1019.2 |
| 20260906154644 | 11 | 7 | 17.7 | 25.7 | 0.00 | 2.26 | 2.26 | 91 | 1019.2 |
| 20260906154139 | 11 | 0 | 16.1 | 25.7 | 0.00 | 2.26 | 2.26 | 91 | 1019.4 |
| 20260906153638 | 12 | 0 | 12.9 | 25.7 | 0.00 | 2.26 | 2.26 | 91 | 1019.7 |
| 20260906153133 | 12 | 13 | 17.7 | 20.9 | 0.00 | 2.26 | 2.26 | 91 | 1019.7 |
| 20260906152633 | 12 | 12 | 16.1 | 22.5 | 0.00 | 2.26 | 2.26 | 92 | 1019.7 |
| 20260906152126 | 12 | 5 | 9.7 | 22.5 | 0.00 | 2.26 | 2.26 | 92 | 1019.6 |
| 20260906151621 | 11 | 351 | 14.5 | 16.1 | 0.00 | 2.26 | 2.26 | 93 | 1019.7 |
| 20260906151118 | 11 | 14 | 9.7 | 16.1 | 0.00 | 2.26 | 2.26 | 94 | 1019.7 |
| 20260906150613 | 11 | 326 | 8.0 | 11.3 | 0.00 | 2.26 | 2.26 | 94 | 1019.8 |
| 20260906150108 | 11 | 296 | 11.3 | 16.1 | 0.00 | 2.26 | 2.26 | 94 | 1020.2 |
| 20260906145606 | 11 | 281 | 12.9 | 17.7 | 0.13 | 2.26 | 2.26 | 94 | 1020.1 |
| 20260906145101 | 11 | 317 | 12.9 | 25.7 | 0.43 | 2.26 | 2.26 | 95 | 1020.2 |
| 20260906144555 | 11 | 243 | 9.7 | 22.5 | 0.61 | 2.24 | 2.24 | 95 | 1020.2 |
| 20260906144051 | 11 | 275 | 16.1 | 25.7 | 0.48 | 2.18 | 2.18 | 95 | 1020.5 |
| 20260906143546 | 10 | 275 | 12.9 | 27.4 | 1.07 | 2.13 | 2.13 | 95 | 1020.5 |
| 20260906143043 | 10 | 298 | 22.5 | 30.6 | 1.37 | 2.11 | 2.11 | 95 | 1020.3 |
| 20260906142542 | 11 | 333 | 19.3 | 25.7 | 0.79 | 1.96 | 1.96 | 95 | 1021.1 |
| 20260906142038 | 11 | 298 | 12.9 | 22.5 | 0.89 | 1.88 | 1.88 | 94 | 1020.7 |
| 20260906141536 | 11 | 296 | 17.7 | 27.4 | 0.97 | 1.80 | 1.80 | 93 | 1020.6 |
| 20260906141032 | 11 | 255 | 9.7 | 17.7 | 0.61 | 1.73 | 1.73 | 93 | 1020.5 |
| 20260906140531 | 12 | 245 | 6.4 | 6.4 | 0.00 | 1.63 | 1.63 | 92 | 1020.2 |
| 20260906140031 | 12 | 216 | 14.5 | 24.1 | 0.00 | 1.63 | 1.63 | 91 | 1020.1 |
| 20260906135528 | 12 | 336 | 22.5 | 27.4 | 0.00 | 1.63 | 1.63 | 90 | 1019.6 |
| 20260906135024 | 12 | 305 | 17.7 | 22.5 | 0.00 | 1.63 | 1.63 | 90 | 1019.6 |
| 20260906134519 | 12 | 354 | 11.3 | 16.1 | 0.00 | 1.63 | 1.63 | 90 | 1019.2 |
| 20260906134014 | 12 | 11 | 8.0 | 16.1 | 0.00 | 1.63 | 1.63 | 90 | 1019.2 |
| 20260906133510 | 12 | 2 | 14.5 | 17.7 | 0.00 | 1.63 | 1.63 | 91 | 1019.3 |
| 20260906133005 | 12 | 350 | 9.7 | 22.5 | 0.00 | 1.63 | 1.63 | 91 | 1018.9 |
| 20260906132500 | 12 | 0 | 11.3 | 27.4 | 0.00 | 1.63 | 1.63 | 91 | 1019.4 |
| 20260906131955 | 12 | 14 | 9.7 | 27.4 | 0.00 | 1.63 | 1.63 | 91 | 1018.9 |
| 20260906131451 | 12 | 12 | 17.7 | 22.5 | 0.00 | 1.63 | 1.63 | 90 | 1018.8 |
| 20260906130946 | 12 | 26 | 14.5 | 17.7 | 0.00 | 1.63 | 1.63 | 90 | 1019.1 |
| 20260906130445 | 12 | 21 | 11.3 | 24.1 | 0.00 | 1.63 | 1.63 | 89 | 1019.1 |
| 20260906125940 | 12 | 1 | 16.1 | 29.0 | 0.00 | 1.63 | 1.63 | 89 | 1019.3 |
| 20260906125438 | 13 | 13 | 14.5 | 25.7 | 0.00 | 1.63 | 1.63 | 88 | 1019.3 |
| 20260906124937 | 13 | 15 | 12.9 | 20.9 | 0.00 | 1.63 | 1.63 | 86 | 1019.4 |
| 20260906124433 | 13 | 7 | 11.3 | 16.1 | 0.00 | 1.63 | 1.63 | 85 | 1019.5 |
| 20260906123933 | 14 | 11 | 14.5 | 20.9 | 0.00 | 1.63 | 1.63 | 83 | 1019.6 |
| 20260906123432 | 14 | 12 | 8.0 | 22.5 | 0.00 | 1.63 | 1.63 | 82 | 1019.7 |
| 20260906122927 | 13 | 7 | 12.9 | 25.7 | 0.00 | 1.63 | 1.63 | 83 | 1019.6 |
| 20260906122421 | 13 | 358 | 12.9 | 27.4 | 0.00 | 1.63 | 1.63 | 87 | 1019.6 |
| 20260906121919 | 13 | 342 | 14.5 | 25.7 | 0.00 | 1.63 | 1.63 | 87 | 1019.5 |
| 20260906121414 | 12 | 348 | 12.9 | 20.9 | 0.00 | 1.63 | 1.63 | 85 | 1019.5 |
| 20260906120910 | 12 | 309 | 22.5 | 33.8 | 0.00 | 1.63 | 1.63 | 86 | 1019.6 |
| 20260906120406 | 12 | 313 | 11.3 | 25.7 | 0.00 | 1.63 | 1.63 | 86 | 1020.0 |
| 20260906115902 | 12 | 289 | 22.5 | 27.4 | 0.00 | 1.63 | 1.63 | 89 | 1020.1 |
| 20260906115357 | 13 | 251 | 25.7 | 37.0 | 0.00 | 1.63 | 1.63 | 86 | 1020.0 |
| 20260906114856 | 13 | 316 | 11.3 | 14.5 | 0.00 | 1.63 | 1.63 | 86 | 1020.2 |
| 20260906114351 | 13 | 3 | 11.3 | 24.1 | 0.00 | 1.63 | 1.63 | 86 | 1019.8 |
| 20260906113847 | 13 | 350 | 11.3 | 24.1 | 0.00 | 1.63 | 1.63 | 86 | 1019.6 |
| 20260906113345 | 13 | 2 | 14.5 | 22.5 | 0.00 | 1.63 | 1.63 | 85 | 1019.6 |
| 20260906112841 | 13 | 6 | 14.5 | 24.1 | 0.00 | 1.63 | 1.63 | 83 | 1019.6 |
| 20260906112338 | 13 | 9 | 11.3 | 17.7 | 0.00 | 1.63 | 1.63 | 84 | 1019.7 |
| 20260906111837 | 13 | 17 | 9.7 | 25.7 | 0.00 | 1.63 | 1.63 | 83 | 1019.6 |
| 20260906111337 | 12 | 14 | 12.9 | 24.1 | 0.00 | 1.63 | 1.63 | 83 | 1019.5 |
| 20260906110832 | 12 | 20 | 8.0 | 20.9 | 0.00 | 1.63 | 1.63 | 86 | 1019.3 |
| 20260906110328 | 12 | 31 | 9.7 | 14.5 | 0.00 | 1.63 | 1.63 | 87 | 1019.4 |
| 20260906105827 | 12 | 15 | 11.3 | 20.9 | 0.00 | 1.63 | 1.63 | 86 | 1019.4 |
| 20260906105323 | 12 | 15 | 16.1 | 25.7 | 0.00 | 1.63 | 1.63 | 86 | 1019.3 |
| 20260906104819 | 12 | 8 | 16.1 | 29.0 | 0.00 | 1.63 | 1.63 | 86 | 1019.4 |
| 20260906104317 | 12 | 9 | 11.3 | 24.1 | 0.00 | 1.63 | 1.63 | 87 | 1019.6 |
| 20260906103816 | 12 | 19 | 11.3 | 20.9 | 0.00 | 1.63 | 1.63 | 88 | 1019.6 |
| 20260906103315 | 12 | 1 | 14.5 | 22.5 | 0.00 | 1.63 | 1.63 | 89 | 1019.8 |
| 20260906102811 | 12 | 13 | 16.1 | 25.7 | 0.00 | 1.63 | 1.63 | 89 | 1019.8 |
| 20260906102309 | 12 | 344 | 17.7 | 29.0 | 0.00 | 1.63 | 1.63 | 90 | 1019.6 |
| 20260906101805 | 12 | 359 | 16.1 | 24.1 | 0.00 | 1.63 | 1.63 | 91 | 1019.7 |
| 20260906101300 | 12 | 358 | 20.9 | 37.0 | 0.00 | 1.63 | 1.63 | 92 | 1019.8 |
| 20260906100755 | 11 | 4 | 17.7 | 29.0 | 0.00 | 1.63 | 1.63 | 93 | 1019.7 |
| 20260906100254 | 11 | 348 | 20.9 | 29.0 | 0.00 | 1.63 | 1.63 | 93 | 1019.6 |
| 20260906095750 | 11 | 359 | 12.9 | 22.5 | 0.00 | 1.63 | 1.63 | 93 | 1019.8 |
| 20260906095245 | 11 | 6 | 19.3 | 29.0 | 0.00 | 1.63 | 1.63 | 93 | 1019.7 |
| 20260906094744 | 11 | 359 | 11.3 | 22.5 | 0.00 | 1.63 | 1.63 | 92 | 1019.7 |
| 20260906094239 | 12 | 357 | 11.3 | 16.1 | 0.00 | 1.63 | 1.63 | 91 | 1019.8 |
| 20260906093735 | 12 | 50 | 6.4 | 12.9 | 0.00 | 1.63 | 1.63 | 92 | 1020.1 |
| 20260906093231 | 11 | 7 | 16.1 | 25.7 | 0.00 | 1.63 | 1.63 | 93 | 1020.2 |
| 20260906092726 | 11 | 33 | 0.0 | 0.0 | 0.00 | 1.63 | 1.63 | 92 | 1020.3 |
| 20260906092225 | 12 | 357 | 9.7 | 11.3 | 0.00 | 1.63 | 1.63 | 91 | 1020.4 |
| 20260906091722 | 12 | 0 | 11.3 | 17.7 | 0.30 | 1.63 | 1.63 | 91 | 1020.6 |
| 20260906091218 | 12 | 349 | 9.7 | 20.9 | 0.79 | 1.63 | 1.63 | 92 | 1020.8 |
| 20260906090715 | 11 | 2 | 16.1 | 24.1 | 1.19 | 1.55 | 1.55 | 95 | 1021.1 |
| 20260906090214 | 11 | 47 | 4.8 | 6.4 | 1.32 | 1.47 | 1.47 | 95 | 1021.6 |
| 20260906085713 | 11 | 3 | 4.8 | 9.7 | 1.37 | 1.32 | 1.32 | 95 | 1021.5 |
| 20260906085212 | 11 | 314 | 6.4 | 11.3 | 3.07 | 1.24 | 1.24 | 95 | 1021.6 |
| 20260906084707 | 11 | 288 | 9.7 | 16.1 | 3.53 | 0.97 | 0.97 | 94 | 1021.7 |
| 20260906084207 | 12 | 286 | 14.5 | 22.5 | 1.68 | 0.66 | 0.66 | 93 | 1021.5 |
| 20260906083701 | 12 | 318 | 12.9 | 17.7 | 0.61 | 0.38 | 0.38 | 93 | 1021.6 |
| 20260906083156 | 12 | 330 | 14.5 | 22.5 | 0.48 | 0.36 | 0.36 | 93 | 1021.6 |
| 20260906082651 | 12 | 329 | 9.7 | 14.5 | 0.13 | 0.28 | 0.28 | 93 | 1021.2 |
| 20260906082147 | 12 | 352 | 9.7 | 14.5 | 0.00 | 0.25 | 0.25 | 92 | 1021.3 |
| 20260906081643 | 11 | 353 | 6.4 | 17.7 | 0.00 | 0.25 | 0.25 | 92 | 1020.8 |
| 20260906081138 | 11 | 3 | 11.3 | 29.0 | 0.00 | 0.25 | 0.25 | 92 | 1019.8 |
| 20260906080634 | 11 | 323 | 22.5 | 29.0 | 0.00 | 0.25 | 0.25 | 93 | 1020.1 |
| 20260906080130 | 12 | 0 | 25.7 | 30.6 | 0.00 | 0.25 | 0.25 | 93 | 1020.3 |
| 20260906075630 | 11 | 349 | 19.3 | 24.1 | 0.00 | 0.25 | 0.25 | 93 | 1020.6 |
| 20260906075124 | 11 | 348 | 17.7 | 24.1 | 0.00 | 0.25 | 0.25 | 94 | 1021.1 |
| 20260906074620 | 11 | 342 | 12.9 | 25.7 | 0.00 | 0.25 | 0.25 | 93 | 1021.2 |
| 20260906074118 | 11 | 320 | 17.7 | 29.0 | 0.00 | 0.25 | 0.25 | 93 | 1021.5 |
| 20260906073613 | 11 | 331 | 14.5 | 25.7 | 0.00 | 0.25 | 0.25 | 93 | 1021.1 |
| 20260906073109 | 11 | 3 | 22.5 | 33.8 | 0.00 | 0.25 | 0.25 | 93 | 1020.8 |
| 20260906072605 | 11 | 348 | 17.7 | 30.6 | 0.00 | 0.25 | 0.25 | 93 | 1020.6 |
| 20260906072101 | 12 | 350 | 20.9 | 30.6 | 0.00 | 0.25 | 0.25 | 93 | 1020.6 |
| 20260906071557 | 12 | 346 | 14.5 | 35.4 | 0.00 | 0.25 | 0.25 | 93 | 1020.6 |
| 20260906071056 | 12 | 2 | 19.3 | 33.8 | 0.00 | 0.25 | 0.25 | 93 | 1020.7 |
| 20260906070553 | 12 | 6 | 20.9 | 27.4 | 0.18 | 0.25 | 0.25 | 93 | 1021.3 |
| 20260906070049 | 12 | 352 | 12.9 | 27.4 | 0.36 | 0.25 | 0.25 | 92 | 1021.4 |
| 20260906065548 | 12 | 301 | 9.7 | 16.1 | 0.30 | 0.23 | 0.23 | 92 | 1021.8 |
| 20260906065044 | 12 | 0 | 11.3 | 24.1 | 0.13 | 0.20 | 0.20 | 91 | 1021.6 |
| 20260906064539 | 12 | 356 | 16.1 | 24.1 | 0.00 | 0.18 | 0.18 | 91 | 1021.5 |
| 20260906064034 | 12 | 355 | 16.1 | 27.4 | 0.00 | 0.18 | 0.18 | 91 | 1021.3 |
| 20260906063530 | 12 | 358 | 14.5 | 27.4 | 0.30 | 0.18 | 0.18 | 92 | 1021.5 |
| 20260906063026 | 12 | 325 | 14.5 | 22.5 | 0.79 | 0.18 | 0.18 | 92 | 1022.1 |
| 20260906062521 | 12 | 316 | 9.7 | 17.7 | 0.61 | 0.13 | 0.13 | 92 | 1022.3 |
| 20260906062015 | 12 | 331 | 9.7 | 17.7 | 0.13 | 0.05 | 0.05 | 91 | 1023.0 |
| 20260906061512 | 12 | 334 | 8.0 | 17.7 | 0.18 | 0.03 | 0.03 | 92 | 1022.7 |
| 20260906061010 | 12 | 6 | 9.7 | 16.1 | 0.18 | 0.03 | 0.03 | 91 | 1022.4 |
| 20260906060507 | 12 | 350 | 16.1 | 17.7 | 0.00 | 0.00 | 0.00 | 91 | 1022.2 |
| 20260906060004 | 12 | 8 | 14.5 | 24.1 | 0.00 | 0.64 | 0.64 | 91 | 1022.1 |
| 20260906055459 | 12 | 5 | 16.1 | 25.7 | 0.00 | 0.64 | 0.64 | 90 | 1022.0 |
| 20260906054955 | 12 | 340 | 17.7 | 25.7 | 0.00 | 0.64 | 0.64 | 90 | 1021.7 |
| 20260906054454 | 12 | 351 | 16.1 | 24.1 | 0.00 | 0.64 | 0.64 | 90 | 1021.8 |
| 20260906053950 | 12 | 348 | 14.5 | 20.9 | 0.00 | 0.64 | 0.64 | 90 | 1021.8 |
| 20260906053446 | 12 | 2 | 17.7 | 24.1 | 0.00 | 0.64 | 0.64 | 90 | 1022.1 |
| 20260906052942 | 12 | 358 | 19.3 | 24.1 | 0.00 | 0.64 | 0.64 | 91 | 1021.8 |
| 20260906052438 | 12 | 348 | 19.3 | 25.7 | 0.00 | 0.64 | 0.64 | 92 | 1021.7 |
| 20260906051934 | 11 | 357 | 9.7 | 27.4 | 0.00 | 0.64 | 0.64 | 92 | 1021.7 |
| 20260906051430 | 11 | 348 | 20.9 | 25.7 | 0.00 | 0.64 | 0.64 | 93 | 1021.7 |
| 20260906050925 | 11 | 10 | 17.7 | 22.5 | 0.13 | 0.64 | 0.64 | 93 | 1021.6 |
| 20260906050425 | 11 | 345 | 20.9 | 35.4 | 0.43 | 0.64 | 0.64 | 92 | 1021.5 |
| 20260906045924 | 11 | 358 | 12.9 | 35.4 | 0.66 | 0.61 | 0.61 | 91 | 1021.8 |
| 20260906045423 | 11 | 346 | 11.3 | 17.7 | 0.18 | 0.53 | 0.53 | 90 | 1023.0 |
| 20260906044920 | 11 | 352 | 11.3 | 22.5 | 0.00 | 0.51 | 0.51 | 90 | 1022.9 |
| 20260906044419 | 12 | 333 | 12.9 | 20.9 | 0.00 | 0.51 | 0.51 | 89 | 1021.8 |
| 20260906043915 | 12 | 352 | 17.7 | 27.4 | 0.13 | 0.51 | 0.51 | 89 | 1021.3 |
| 20260906043411 | 12 | 327 | 19.3 | 25.7 | 0.13 | 0.51 | 0.51 | 89 | 1021.3 |
| 20260906042906 | 12 | 349 | 19.3 | 27.4 | 0.00 | 0.48 | 0.48 | 87 | 1020.8 |
| 20260906042405 | 12 | 332 | 24.1 | 33.8 | 0.00 | 0.48 | 0.48 | 88 | 1020.8 |
| 20260906041901 | 11 | 347 | 14.5 | 24.1 | 0.00 | 0.48 | 0.48 | 88 | 1021.1 |
| 20260906041357 | 11 | 11 | 17.7 | 30.6 | 0.00 | 0.48 | 0.48 | 88 | 1021.2 |
| 20260906040856 | 11 | 4 | 19.3 | 29.0 | 0.00 | 0.48 | 0.48 | 89 | 1020.8 |
| 20260906040352 | 12 | 352 | 22.5 | 27.4 | 0.18 | 0.48 | 0.48 | 88 | 1021.1 |
| 20260906035847 | 11 | 6 | 20.9 | 30.6 | 0.30 | 0.48 | 0.48 | 89 | 1020.7 |
| 20260906035342 | 11 | 0 | 19.3 | 30.6 | 0.43 | 0.46 | 0.46 | 89 | 1020.5 |
| 20260906034838 | 12 | 355 | 17.7 | 33.8 | 0.43 | 0.41 | 0.41 | 89 | 1020.7 |
| 20260906034332 | 12 | 20 | 9.7 | 16.1 | 0.71 | 0.36 | 0.36 | 89 | 1022.7 |
| 20260906033828 | 12 | 355 | 12.9 | 14.5 | 0.61 | 0.30 | 0.30 | 87 | 1022.6 |
| 20260906033327 | 12 | 0 | 14.5 | 24.1 | 0.48 | 0.23 | 0.23 | 86 | 1022.1 |
| 20260906032824 | 12 | 354 | 14.5 | 27.4 | 0.30 | 0.20 | 0.20 | 84 | 1022.3 |
| 20260906032320 | 13 | 352 | 17.7 | 27.4 | 0.00 | 0.15 | 0.15 | 81 | 1021.7 |
| 20260906031814 | 13 | 8 | 14.5 | 27.4 | 0.00 | 0.15 | 0.15 | 77 | 1021.2 |
| 20260906031310 | 14 | 1 | 19.3 | 33.8 | 0.00 | 0.15 | 0.15 | 72 | 1021.0 |
| 20260906030810 | 14 | 350 | 24.1 | 35.4 | 0.00 | 0.15 | 0.15 | 72 | 1020.8 |
| 20260906030305 | 14 | 5 | 22.5 | 27.4 | 0.00 | 0.15 | 0.15 | 72 | 1020.8 |
| 20260906025804 | 14 | 357 | 17.7 | 27.4 | 0.00 | 0.15 | 0.15 | 72 | 1020.5 |
| 20260906025259 | 14 | 344 | 17.7 | 38.6 | 0.00 | 0.15 | 0.15 | 71 | 1020.2 |
| 20260906024758 | 14 | 355 | 14.5 | 33.8 | 0.00 | 0.15 | 0.15 | 71 | 1020.1 |
| 20260906024257 | 14 | 351 | 22.5 | 35.4 | 0.00 | 0.15 | 0.15 | 71 | 1019.8 |
| 20260906023753 | 14 | 345 | 20.9 | 41.8 | 0.00 | 0.15 | 0.15 | 71 | 1019.6 |
| 20260906023248 | 14 | 349 | 27.4 | 35.4 | 0.00 | 0.15 | 0.15 | 71 | 1019.7 |
| 20260906022744 | 14 | 10 | 14.5 | 37.0 | 0.00 | 0.15 | 0.15 | 70 | 1019.8 |
| 20260906022238 | 15 | 6 | 20.9 | 38.6 | 0.00 | 0.15 | 0.15 | 69 | 1019.8 |
| 20260906021735 | 15 | 358 | 19.3 | 33.8 | 0.00 | 0.15 | 0.15 | 69 | 1019.6 |
| 20260906021233 | 15 | 9 | 22.5 | 33.8 | 0.00 | 0.15 | 0.15 | 69 | 1020.1 |
| 20260906020728 | 15 | 5 | 24.1 | 35.4 | 0.00 | 0.15 | 0.15 | 69 | 1019.8 |
| 20260906020223 | 15 | 0 | 14.5 | 29.0 | 0.00 | 0.15 | 0.15 | 68 | 1019.8 |
| 20260906015723 | 15 | 3 | 14.5 | 25.7 | 0.00 | 0.15 | 0.15 | 68 | 1019.8 |
| 20260906015221 | 15 | 11 | 17.7 | 33.8 | 0.00 | 0.15 | 0.15 | 68 | 1019.8 |
| 20260906014716 | 15 | 355 | 24.1 | 33.8 | 0.00 | 0.15 | 0.15 | 67 | 1019.7 |
| 20260906014212 | 15 | 1 | 14.5 | 27.4 | 0.00 | 0.15 | 0.15 | 67 | 1019.8 |
| 20260906013708 | 15 | 351 | 14.5 | 24.1 | 0.00 | 0.15 | 0.15 | 67 | 1020.0 |
| 20260906013208 | 15 | 2 | 16.1 | 37.0 | 0.00 | 0.15 | 0.15 | 66 | 1019.8 |
| 20260906012703 | 16 | 10 | 14.5 | 30.6 | 0.00 | 0.15 | 0.15 | 66 | 1019.6 |
| 20260906012158 | 16 | 11 | 14.5 | 25.7 | 0.00 | 0.15 | 0.15 | 65 | 1019.7 |
| 20260906011654 | 16 | 358 | 9.7 | 30.6 | 0.00 | 0.15 | 0.15 | 64 | 1019.8 |
| 20260906011154 | 16 | 22 | 16.1 | 30.6 | 0.00 | 0.15 | 0.15 | 64 | 1019.7 |
| 20260906010649 | 16 | 340 | 22.5 | 33.8 | 0.00 | 0.15 | 0.15 | 64 | 1019.8 |
| 20260906010145 | 16 | 11 | 16.1 | 27.4 | 0.00 | 0.15 | 0.15 | 64 | 1019.6 |
| 20260906005645 | 16 | 357 | 19.3 | 27.4 | 0.00 | 0.15 | 0.15 | 64 | 1019.6 |
| 20260906005144 | 16 | 3 | 22.5 | 29.0 | 0.00 | 0.15 | 0.15 | 63 | 1019.7 |
| 20260906004643 | 16 | 359 | 19.3 | 29.0 | 0.00 | 0.15 | 0.15 | 63 | 1019.8 |
| 20260906004138 | 16 | 358 | 19.3 | 24.1 | 0.00 | 0.15 | 0.15 | 63 | 1019.8 |
| 20260906003633 | 16 | 352 | 17.7 | 29.0 | 0.00 | 0.15 | 0.15 | 63 | 1019.8 |
| 20260906003129 | 17 | 359 | 17.7 | 25.7 | 0.00 | 0.15 | 0.15 | 62 | 1019.6 |
| 20260906002624 | 17 | 350 | 16.1 | 27.4 | 0.00 | 0.15 | 0.15 | 62 | 1020.1 |
| 20260906002119 | 17 | 350 | 27.4 | 35.4 | 0.00 | 0.15 | 0.15 | 62 | 1020.2 |
| 20260906001614 | 17 | 343 | 20.9 | 25.7 | 0.00 | 0.15 | 0.15 | 62 | 1020.3 |
| 20260906001108 | 17 | 351 | 17.7 | 24.1 | 0.00 | 0.15 | 0.15 | 61 | 1020.2 |
| 20260906000604 | 17 | 352 | 16.1 | 29.0 | 0.00 | 0.15 | 0.15 | 61 | 1020.1 |
| 20260906000059 | 17 | 3 | 12.9 | 24.1 | 0.00 | 0.15 | 0.15 | 60 | 1020.0 |
| 20260905235558 | 17 | 350 | 14.5 | 22.5 | 0.00 | 0.15 | 0.15 | 59 | 1020.4 |
| 20260905235054 | 17 | 359 | 9.7 | 17.7 | 0.00 | 0.15 | 0.15 | 61 | 1020.2 |
| 20260905234549 | 18 | 351 | 19.3 | 22.5 | 0.00 | 0.15 | 0.15 | 58 | 1020.3 |
| 20260905234044 | 18 | 358 | 11.3 | 22.5 | 0.00 | 0.15 | 0.15 | 58 | 1020.4 |
| 20260905233544 | 18 | 331 | 11.3 | 17.7 | 0.00 | 0.15 | 0.15 | 59 | 1020.3 |
| 20260905233044 | 18 | 4 | 12.9 | 25.7 | 0.00 | 0.15 | 0.15 | 58 | 1020.3 |